TimePDT,TemperatureF,Dew PointF,Humidity,Sea Level PressureIn,VisibilityMPH,Wind Direction,Wind SpeedMPH,Gust SpeedMPH,PrecipitationIn,Events,Conditions,WindDirDegrees,DateUTC
12:53 AM,60.1,53.1,78,29.94,8.0,Calm,Calm,-,N/A,,Clear,0,2013-03-25 07:53:00
1:53 AM,59.0,53.1,81,29.93,7.0,Calm,Calm,-,N/A,,Clear,0,2013-03-25 08:53:00
2:50 AM,57.2,51.8,82,29.93,8.0,Calm,Calm,-,N/A,,Scattered Clouds,0,2013-03-25 09:50:00
2:53 AM,57.9,51.1,78,29.92,8.0,Calm,Calm,-,N/A,,Scattered Clouds,0,2013-03-25 09:53:00
3:12 AM,57.2,51.8,82,29.92,7.0,Calm,Calm,-,N/A,,Mostly Cloudy,0,2013-03-25 10:12:00
3:31 AM,55.4,51.8,88,29.92,1.8,Calm,Calm,-,N/A,,Overcast,0,2013-03-25 10:31:00
3:34 AM,55.4,51.8,88,29.92,0.8,Calm,Calm,-,N/A,,Overcast,0,2013-03-25 10:34:00
3:53 AM,55.9,53.1,90,29.92,0.2,Calm,Calm,-,N/A,Fog,Fog,0,2013-03-25 10:53:00
4:53 AM,57.0,53.1,87,29.93,0.5,Calm,Calm,-,N/A,Fog,Fog,0,2013-03-25 11:53:00
5:53 AM,57.0,54.0,89,29.94,0.8,Calm,Calm,-,N/A,,Mist,0,2013-03-25 12:53:00
6:12 AM,57.2,53.6,88,29.94,1.5,Calm,Calm,-,N/A,,Overcast,0,2013-03-25 13:12:00
6:24 AM,57.2,53.6,88,29.95,2.0,Calm,Calm,-,N/A,,Overcast,0,2013-03-25 13:24:00
6:53 AM,57.0,53.1,87,29.95,2.0,East,3.5,-,N/A,,Overcast,80,2013-03-25 13:53:00
7:03 AM,57.2,53.6,88,29.95,1.0,East,3.5,-,N/A,,Overcast,80,2013-03-25 14:03:00
7:15 AM,57.2,53.6,88,29.96,0.8,Calm,Calm,-,N/A,,Overcast,0,2013-03-25 14:15:00
7:25 AM,57.2,53.6,88,29.96,1.0,East,3.5,-,N/A,,Overcast,80,2013-03-25 14:25:00
7:53 AM,57.0,53.1,87,29.96,1.8,East,5.8,-,N/A,,Overcast,80,2013-03-25 14:53:00
8:36 AM,57.2,53.6,88,29.96,2.5,Calm,Calm,-,N/A,,Haze,0,2013-03-25 15:36:00
8:53 AM,59.0,53.1,81,29.97,2.5,Calm,Calm,-,N/A,,Haze,0,2013-03-25 15:53:00
9:01 AM,59.0,53.6,82,29.97,3.0,South,3.5,-,N/A,,Haze,190,2013-03-25 16:01:00
9:18 AM,60.8,53.6,77,29.97,3.0,Calm,Calm,-,N/A,,Haze,0,2013-03-25 16:18:00
9:53 AM,63.0,53.1,70,29.97,4.0,Calm,Calm,-,N/A,,Haze,0,2013-03-25 16:53:00
10:53 AM,66.9,52.0,59,29.97,5.0,Calm,Calm,-,N/A,,Haze,0,2013-03-25 17:53:00
11:53 AM,73.0,52.0,48,29.96,8.0,South,4.6,-,N/A,,Clear,190,2013-03-25 18:53:00
12:53 PM,75.0,52.0,44,29.94,10.0,Variable,4.6,-,N/A,,Clear,0,2013-03-25 19:53:00
1:53 PM,75.9,48.9,38,29.91,10.0,Variable,4.6,-,N/A,,Clear,0,2013-03-25 20:53:00
2:53 PM,75.9,48.0,37,29.89,10.0,SSW,6.9,-,N/A,,Clear,210,2013-03-25 21:53:00
3:53 PM,73.9,48.9,41,29.88,10.0,Variable,6.9,-,N/A,,Clear,0,2013-03-25 22:53:00
4:53 PM,72.0,50.0,46,29.88,10.0,SW,6.9,-,N/A,,Unknown,230,2013-03-25 23:53:00
5:53 PM,68.0,52.0,56,29.88,10.0,SSW,4.6,-,N/A,,Clear,210,2013-03-26 00:53:00
6:53 PM,64.9,53.1,65,29.89,10.0,SSW,4.6,-,N/A,,Clear,200,2013-03-26 01:53:00
7:53 PM,64.0,53.1,67,29.90,10.0,South,3.5,-,N/A,,Clear,180,2013-03-26 02:53:00
8:53 PM,63.0,53.1,70,29.93,10.0,ESE,3.5,-,N/A,,Clear,120,2013-03-26 03:53:00
9:53 PM,62.1,54.0,75,29.94,10.0,SSE,3.5,-,N/A,,Clear,160,2013-03-26 04:53:00
10:53 PM,61.0,54.0,78,29.95,8.0,Calm,Calm,-,N/A,,Clear,0,2013-03-26 05:53:00
11:46 PM,60.8,53.6,77,29.95,8.0,SSE,4.6,-,N/A,,Scattered Clouds,150,2013-03-26 06:46:00
11:53 PM,60.1,54.0,80,29.94,8.0,Calm,Calm,-,N/A,,Mostly Cloudy,0,2013-03-26 06:53:00